This is the latest recevied weather packets stored in our database for station/object N4UUJ-1. If no packets are shown the sender has not sent any weather packets the latest 10 day(s).
| Time | Temp. | Humidity | Pressure | Rain* | Wind** | Luminosity | Snow |
|---|---|---|---|---|---|---|---|
| 1788155530 | 67° F | 75% | 767.5 mmHg | 0 in | - | - | - |
| 1788153729 | 67° F | 75% | 767.6 mmHg | 0 in | - | - | - |
| 1788151928 | 67° F | 75% | 767.6 mmHg | 0 in | - | - | - |
| 1788150127 | 67° F | 75% | 767.6 mmHg | 0 in | - | - | - |
| 1788148326 | 68° F | 75% | 767.6 mmHg | 0 in | - | - | - |
| 1788146525 | 69° F | 75% | 767.5 mmHg | 0 in | - | - | - |
| 1788144724 | 69° F | 75% | 767.7 mmHg | 0 in | - | - | - |
| 1788142923 | 69° F | 75% | 767.8 mmHg | 0 in | - | - | - |
| 1788141122 | 70° F | 75% | 767.6 mmHg | 0 in | - | - | - |
| 1788139321 | 71° F | 75% | 767.2 mmHg | 0 in | - | - | - |
| 1788137520 | 72° F | 75% | 767.1 mmHg | 0 in | - | - | - |
| 1788135719 | 75° F | 75% | 766.9 mmHg | 0 in | - | - | - |
| 1788133918 | 80° F | 75% | 766.9 mmHg | 0 in | - | - | - |
| 1788132117 | 80° F | 75% | 766.9 mmHg | 0 in | - | - | - |
| 1788130316 | 82° F | 75% | 767 mmHg | 0 in | - | - | - |
| 1788128515 | 82° F | 75% | 766.9 mmHg | 0 in | - | - | - |
| 1788126714 | 83° F | 75% | 766.9 mmHg | 0 in | - | - | - |
| 1788124913 | 84° F | 75% | 766.9 mmHg | 0 in | - | - | - |
| 1788123112 | 84° F | 75% | 767 mmHg | 0 in | - | - | - |
| 1788121311 | 85° F | 75% | 767.2 mmHg | 0 in | - | - | - |
| 1788119510 | 86° F | 75% | 767.5 mmHg | 0 in | - | - | - |
| 1788117709 | 86° F | 75% | 767.8 mmHg | 0 in | - | - | - |
| 1788115908 | 83° F | 75% | 768.2 mmHg | 0 in | - | - | - |
| 1788114107 | 85° F | 75% | 768.3 mmHg | 0 in | - | - | - |
| 1788112306 | 85° F | 75% | 768.5 mmHg | 0 in | - | - | - |
* Rain latest hour (hover to see other rain measurements)
** Current wind speed in m/s (hover to see current wind gust speed)